DW8780 Seaford DE US current weather conditions

sailwx.info

Wind from 199 at 2 knots gusting 7

Air temperature 10.0° C
Dewpoint 6.0° C

Last reported at 2019-Nov-22 12:05 UTC.
Time now 2019-Nov-22 12:42 UTC

Location: N 38°39' W 075°38'.
View on Google Maps.

See reports from other nearby stations

  
Tides and Currents Weather Stations Pressure Air Temp Water Temp Dewpoint Dewpoint Depression Visibility Wind Speed Wind Dir Waves Ship Positions
date/time (UTC)wind fromknots sea level pressurealtimeterstation pressurevisibilityair tempwater tempwave heightnotes
2019-Nov-22 12:05 199 2 gusting 7 10.0
2019-Nov-22 12:00 203 2 gusting 7 10.0
2019-Nov-22 11:55 221 2 gusting 6 10.0
2019-Nov-22 11:50 226 2 gusting 6 10.0
2019-Nov-22 11:45 218 2 gusting 6 10.0
2019-Nov-22 11:40 217 2 gusting 6 10.0
2019-Nov-22 11:35 214 2 gusting 7 10.0
2019-Nov-22 11:30 213 3 gusting 7 10.0
2019-Nov-22 11:25 224 2 gusting 7 10.0
2019-Nov-22 11:20 224 2 gusting 6 10.0
2019-Nov-22 11:15 223 2 gusting 6 10.0
2019-Nov-22 11:10 213 1 gusting 5 10.0
2019-Nov-22 11:05 202 1 gusting 5 10.0
2019-Nov-22 11:00 209 2 gusting 6 10.0
2019-Nov-22 10:55 207 3 gusting 6 10.0
2019-Nov-22 10:50 191 3 gusting 8 10.0
2019-Nov-22 10:45 187 3 gusting 8 10.0
2019-Nov-22 10:40 191 2 gusting 6 10.0
2019-Nov-22 10:35 192 2 gusting 6 10.0
2019-Nov-22 10:30 190 2 gusting 6 10.0
2019-Nov-22 10:25 195 2 gusting 5 10.0
2019-Nov-22 10:20 193 2 gusting 6 10.6
2019-Nov-22 10:15 192 2 gusting 6 10.6
2019-Nov-22 10:10 205 2 gusting 6 10.6
2019-Nov-22 10:05 205 2 gusting 6 10.6
2019-Nov-22 10:00 194 2 gusting 6 10.6
2019-Nov-22 09:55 199 2 gusting 6 10.6
2019-Nov-22 09:50 209 2 gusting 7 10.6
2019-Nov-22 09:45 216 3 gusting 7 10.6
2019-Nov-22 09:40 209 3 gusting 7 10.6
2019-Nov-22 09:35 204 3 gusting 7 10.6
2019-Nov-22 09:30 205 3 gusting 8 10.6
2019-Nov-22 09:25 205 3 gusting 8 10.6
2019-Nov-22 09:20 207 3 gusting 9 10.6
2019-Nov-22 09:15 203 3 gusting 10 10.6
2019-Nov-22 09:10 198 4 gusting 11 10.6
2019-Nov-22 09:05 208 3 gusting 11 10.6
2019-Nov-22 09:00 216 3 gusting 10 10.6
2019-Nov-22 08:55 212 3 gusting 8 10.6
2019-Nov-22 08:50 216 3 gusting 11 10.6
2019-Nov-22 08:45 216 3 gusting 11 10.6
2019-Nov-22 08:40 212 3 gusting 9 10.6
2019-Nov-22 08:35 207 3 gusting 8 10.6
2019-Nov-22 08:30 191 3 gusting 9 10.6
2019-Nov-22 08:25 192 3 gusting 9 10.6
2019-Nov-22 08:20 206 3 gusting 9 10.6
2019-Nov-22 08:15 216 3 gusting 9 11.1
2019-Nov-22 08:10 220 3 gusting 7 11.1
2019-Nov-22 08:05 209 4 gusting 11 11.1
2019-Nov-22 08:00 208 4 gusting 11 11.1
2019-Nov-22 07:55 216 3 gusting 8 11.1
2019-Nov-22 07:50 218 3 gusting 7 11.1
2019-Nov-22 07:45 221 3 gusting 10 11.1
2019-Nov-22 07:40 220 3 gusting 10 11.1
2019-Nov-22 07:35 217 3 gusting 8 10.6
2019-Nov-22 07:30 212 3 gusting 6 10.6
2019-Nov-22 07:25 206 2 gusting 6 10.6
2019-Nov-22 07:20 206 2 gusting 8 10.6
2019-Nov-22 07:15 201 3 gusting 8 10.6
2019-Nov-22 07:10 188 4 gusting 6 10.6
2019-Nov-22 07:05 188 3 gusting 8 10.6
2019-Nov-22 07:00 188 3 gusting 8 10.0
2019-Nov-22 06:55 198 3 gusting 7 10.0
2019-Nov-22 06:50 217 3 gusting 7 10.0
2019-Nov-22 06:45 213 3 gusting 6 10.0
2019-Nov-22 06:40 205 3 gusting 8 10.0
2019-Nov-22 06:35 196 3 gusting 8 10.0
2019-Nov-22 06:30 197 2 gusting 9 9.4
2019-Nov-22 06:25 210 2 gusting 9 9.4
2019-Nov-22 06:20 225 2 gusting 6 9.4
2019-Nov-22 06:15 232 3 gusting 7 9.4
2019-Nov-22 06:10 225 3 gusting 7 9.4
2019-Nov-22 06:05 214 4 gusting 10 8.9
2019-Nov-22 06:00 196 5 gusting 10 8.9
2019-Nov-22 05:55 187 6 gusting 13 8.9
2019-Nov-22 05:50 185 6 gusting 13 8.9
2019-Nov-22 05:45 184 6 gusting 12 8.9
2019-Nov-22 05:40 187 5 gusting 12 8.9
2019-Nov-22 05:35 188 5 gusting 8 8.3
2019-Nov-22 05:30 184 5 gusting 9 8.3
2019-Nov-22 05:25 185 5 gusting 9 8.3
2019-Nov-22 05:20 189 4 gusting 8 8.3
2019-Nov-22 05:15 190 4 gusting 7 8.3
2019-Nov-22 05:10 188 3 gusting 7 8.3
2019-Nov-22 05:05 190 2 gusting 7 8.3
2019-Nov-22 05:00 192 3 gusting 6 8.3
2019-Nov-22 04:55 186 4 gusting 8 8.3
2019-Nov-22 04:50 187 3 gusting 10 8.3
2019-Nov-22 04:45 195 3 gusting 10 8.3
2019-Nov-22 04:40 195 3 gusting 7 8.3
2019-Nov-22 04:35 188 3 gusting 7 8.3
2019-Nov-22 04:30 188 3 gusting 7 8.3
2019-Nov-22 04:25 193 2 gusting 7 8.3
2019-Nov-22 04:20 196 2 gusting 6 8.3
2019-Nov-22 04:15 199 3 gusting 6 8.3
2019-Nov-22 04:10 202 4 gusting 6 8.3
2019-Nov-22 04:05 192 4 gusting 9 8.3
2019-Nov-22 04:00 188 4 gusting 9 8.3
2019-Nov-22 03:55 191 3 gusting 7 8.3
2019-Nov-22 03:50 192 3 gusting 7 8.3
2019-Nov-22 03:45 187 3 gusting 8 8.3
2019-Nov-22 03:40 185 3 gusting 8 8.3
2019-Nov-22 03:35 187 3 gusting 7 7.8
2019-Nov-22 03:30 187 3 gusting 6 7.8
2019-Nov-22 03:25 189 3 gusting 7 7.8
2019-Nov-22 03:20 196 4 gusting 7 7.8
2019-Nov-22 03:15 194 4 gusting 8 7.8
2019-Nov-22 03:10 184 4 gusting 8 7.8
2019-Nov-22 03:05 179 5 gusting 11 7.8
2019-Nov-22 03:00 183 5 gusting 11 7.2
2019-Nov-22 02:55 184 4 gusting 9 7.2
2019-Nov-22 02:50 187 4 gusting 7 7.2
2019-Nov-22 02:45 186 4 gusting 9 7.2
2019-Nov-22 02:40 187 4 gusting 9 7.2
2019-Nov-22 02:35 186 3 gusting 8 7.2
2019-Nov-22 02:30 182 3 gusting 8 7.2
2019-Nov-22 02:25 186 2 gusting 6 6.7
2019-Nov-22 02:20 193 1 gusting 6 6.7
2019-Nov-22 02:15 199 0 gusting 6 6.7
2019-Nov-22 02:10 211 0 gusting 4 6.7
2019-Nov-22 02:05 210 1 gusting 4 7.2
2019-Nov-22 02:00 199 1 gusting 5 7.2
2019-Nov-22 01:55 188 2 gusting 5 7.2
2019-Nov-22 01:50 185 2 gusting 6 7.2
2019-Nov-22 01:45 186 2 gusting 6 7.2
2019-Nov-22 01:40 186 2 gusting 6 7.2
2019-Nov-22 01:35 191 1 gusting 6 7.2
2019-Nov-22 01:30 199 1 gusting 5 7.2
2019-Nov-22 01:25 202 0 gusting 4 7.2
2019-Nov-22 01:20 208 0 gusting 4 7.2
2019-Nov-22 01:15 199 1 gusting 4 7.2
2019-Nov-22 01:10 187 1 gusting 4 7.2
2019-Nov-22 01:05 184 1 gusting 4 7.2
2019-Nov-22 01:00 183 1 gusting 4 7.2
2019-Nov-22 00:55 185 1 gusting 4 7.2
2019-Nov-22 00:50 186 1 gusting 5 7.8
2019-Nov-22 00:45 190 0 gusting 5 7.8
2019-Nov-22 00:40 192 7.8
2019-Nov-22 00:35 179 7.8
2019-Nov-22 00:30 7.8
2019-Nov-22 00:25 7.8
2019-Nov-22 00:20 7.8
2019-Nov-22 00:15 188 1 gusting 3 7.8
2019-Nov-22 00:10 188 1 gusting 5 7.8
2019-Nov-22 00:05 186 2 gusting 5 7.8
2019-Nov-22 00:00 189 2 gusting 6 7.8
2019-Nov-21 23:55 191 2 gusting 6 7.8
2019-Nov-21 23:50 194 1 gusting 6 7.8
2019-Nov-21 23:45 193 1 gusting 6 7.8
2019-Nov-21 23:40 188 1 gusting 5 7.8
2019-Nov-21 23:35 186 1 gusting 5 7.8
2019-Nov-21 23:30 188 0 gusting 5 7.8
2019-Nov-21 23:25 192 1 gusting 4 7.8
2019-Nov-21 23:20 193 1 gusting 4 7.8
2019-Nov-21 23:15 192 1 gusting 5 7.8
2019-Nov-21 23:10 193 1 gusting 6 7.8
2019-Nov-21 23:05 195 1 gusting 6 7.8
2019-Nov-21 23:00 204 0 gusting 6 7.2
2019-Nov-21 22:55 219 7.2
2019-Nov-21 22:50 7.8
2019-Nov-21 22:45 7.8
2019-Nov-21 22:40 7.8
2019-Nov-21 22:35 7.8
2019-Nov-21 22:30 8.3
2019-Nov-21 22:25 8.3
2019-Nov-21 22:20 8.3
2019-Nov-21 22:15 8.9
2019-Nov-21 22:10 8.9
2019-Nov-21 22:05 8.9
2019-Nov-21 22:00 9.4
2019-Nov-21 21:55 9.4
2019-Nov-21 21:50 9.4
2019-Nov-21 21:45 9.4
2019-Nov-21 21:40 10.0
2019-Nov-21 21:35 254 10.0
2019-Nov-21 21:30 252 0 gusting 3 10.0
2019-Nov-21 21:25 241 0 gusting 3 10.0
2019-Nov-21 21:20 252 0 gusting 5 10.6
2019-Nov-21 21:15 250 0 gusting 5 10.6
2019-Nov-21 21:10 233 0 gusting 3 10.6
2019-Nov-21 21:05 249 0 gusting 5 11.1
2019-Nov-21 21:00 259 1 gusting 5 11.1
2019-Nov-21 20:55 256 1 gusting 5 11.7
2019-Nov-21 20:50 253 2 gusting 5 12.2
2019-Nov-21 20:45 272 3 gusting 7 12.2
2019-Nov-21 20:40 281 3 gusting 7 12.8
2019-Nov-21 20:35 280 3 gusting 7 12.2
2019-Nov-21 20:30 289 3 gusting 7 12.2
2019-Nov-21 20:25 270 3 gusting 7 11.7
2019-Nov-21 20:20 245 2 gusting 7 11.7
2019-Nov-21 20:15 251 2 gusting 5 11.7
2019-Nov-21 20:10 252 2 gusting 5 11.7
2019-Nov-21 20:05 250 2 gusting 6 11.7
2019-Nov-21 20:00 252 2 gusting 6 11.7
2019-Nov-21 19:55 270 3 gusting 6 11.7
2019-Nov-21 19:50 284 2 gusting 8 12.2
2019-Nov-21 19:45 275 2 gusting 8 12.2
2019-Nov-21 19:40 277 2 gusting 6 12.8
2019-Nov-21 19:35 297 2 gusting 6 12.8
2019-Nov-21 19:30 274 2 gusting 6 12.2
2019-Nov-21 19:25 252 2 gusting 6 12.2
2019-Nov-21 19:20 241 2 gusting 6 12.2
2019-Nov-21 19:15 225 2 gusting 6 12.2
2019-Nov-21 19:10 252 2 gusting 6 12.2
2019-Nov-21 19:05 274 2 gusting 6 12.2
2019-Nov-21 19:00 280 2 gusting 6 12.8
2019-Nov-21 18:55 278 3 gusting 6 12.8
2019-Nov-21 18:50 277 3 gusting 9 12.8
2019-Nov-21 18:45 289 2 gusting 9 12.8
2019-Nov-21 18:40 277 2 gusting 6 12.8
2019-Nov-21 18:35 264 2 gusting 6 12.2
2019-Nov-21 18:30 263 1 gusting 6 12.2
2019-Nov-21 18:25 266 1 gusting 6 12.2
2019-Nov-21 18:20 274 1 gusting 5 12.2
2019-Nov-21 18:15 267 1 gusting 5 12.2
2019-Nov-21 18:10 263 2 gusting 5 12.2
2019-Nov-21 18:05 283 3 gusting 5 12.2
2019-Nov-21 18:00 288 3 gusting 6 12.2
2019-Nov-21 17:55 277 2 gusting 7 12.2
2019-Nov-21 17:50 295 1 gusting 7 12.2
2019-Nov-21 17:45 308 2 gusting 6 12.2
2019-Nov-21 17:40 305 1 gusting 6 12.2
2019-Nov-21 17:35 324 1 gusting 6 12.2
2019-Nov-21 17:30 348 2 gusting 5 12.2
2019-Nov-21 17:25 336 1 gusting 5 12.2
2019-Nov-21 17:20 327 0 gusting 4 11.7
2019-Nov-21 17:15 348 11.1
2019-Nov-21 17:10 11.1
2019-Nov-21 17:05 083 0 gusting 1 11.1
2019-Nov-21 17:00 327 1 gusting 4 11.1
2019-Nov-21 16:55 304 1 gusting 5 11.1
2019-Nov-21 16:50 317 1 gusting 5 11.1
2019-Nov-21 16:45 359 2 gusting 5 11.1
2019-Nov-21 16:40 349 2 gusting 7 11.1
2019-Nov-21 16:35 353 2 gusting 7 11.1
2019-Nov-21 16:10 340 2 gusting 6 11.7
2019-Nov-21 16:05 351 2 gusting 8 11.7
2019-Nov-21 16:00 357 3 gusting 8 11.1
2019-Nov-21 15:55 017 3 gusting 7 11.1
2019-Nov-21 15:50 015 3 gusting 7 11.1
2019-Nov-21 15:45 358 2 gusting 7 10.6
2019-Nov-21 15:40 327 3 gusting 6 10.6
2019-Nov-21 15:35 319 3 gusting 6 10.6
2019-Nov-21 15:30 323 3 gusting 6 10.6
2019-Nov-21 15:25 334 3 gusting 7 10.0
2019-Nov-21 15:20 345 2 gusting 7 10.0
2019-Nov-21 15:15 346 3 gusting 7 10.0
2019-Nov-21 15:10 338 3 gusting 7 10.0
2019-Nov-21 15:05 333 4 gusting 7 10.0
2019-Nov-21 15:00 341 4 gusting 7 9.4
2019-Nov-21 14:55 353 3 gusting 7 9.4
2019-Nov-21 14:50 339 3 gusting 6 8.9
2019-Nov-21 14:45 320 3 gusting 6 8.9
2019-Nov-21 14:40 320 2 gusting 6 8.9
2019-Nov-21 14:35 330 3 gusting 6 8.3
2019-Nov-21 14:30 325 3 gusting 6 7.8
2019-Nov-21 14:25 313 3 gusting 7 7.8
2019-Nov-21 14:20 320 3 gusting 7 7.2
2019-Nov-21 14:15 317 2 gusting 7 7.2
2019-Nov-21 14:10 318 3 gusting 7 6.7
2019-Nov-21 14:05 318 4 gusting 6 6.7
2019-Nov-21 14:00 320 3 gusting 7 6.1
2019-Nov-21 13:55 317 2 gusting 7 6.1
2019-Nov-21 13:50 304 2 gusting 6 5.6
2019-Nov-21 13:45 301 2 gusting 6 5.6
2019-Nov-21 13:40 307 2 gusting 6 5.0
2019-Nov-21 13:35 315 2 gusting 6 4.4
2019-Nov-21 13:30 304 2 gusting 6 4.4
2019-Nov-21 13:25 303 2 gusting 6 3.9
2019-Nov-21 13:20 302 1 gusting 6 3.3
2019-Nov-21 13:15 299 1 gusting 4 3.3
2019-Nov-21 13:10 304 0 gusting 4 2.8
2019-Nov-21 13:05 306 2.8
2019-Nov-21 13:00 2.2
2019-Nov-21 12:55 2.2
2019-Nov-21 12:50 2.2
2019-Nov-21 12:45 1.7
2019-Nov-21 12:40 250 0 gusting 1 1.7
2019-Nov-21 12:35 250 0 gusting 3 1.7
2019-Nov-21 12:30 249 1.7
2019-Nov-21 12:25 248 1.7
2019-Nov-21 12:20 1.7
2019-Nov-21 12:15 252 1.7
2019-Nov-21 12:10 252 1.7
2019-Nov-21 12:05 1.7
2019-Nov-21 12:00 303 0 gusting 0 1.7
2019-Nov-21 11:55 304 0 gusting 3 1.7
2019-Nov-21 11:50 298 0 gusting 4 2.2
2019-Nov-21 11:45 294 0 gusting 4 2.2
2019-Nov-21 11:40 291 2.2
2019-Nov-21 11:35 289 2.2
2019-Nov-21 11:30 2.2
2019-Nov-21 11:25 2.2
2019-Nov-21 11:20 2.2
2019-Nov-21 11:15 2.8
2019-Nov-21 11:10 2.8
2019-Nov-21 11:05 2.8
2019-Nov-21 11:00 2.8
2019-Nov-21 10:55 303 0 gusting 3 2.8
2019-Nov-21 10:50 308 0 gusting 4 3.3
2019-Nov-21 10:45 312 3.3
2019-Nov-21 10:40 303 0 gusting 2 3.3
2019-Nov-21 10:35 303 0 gusting 3 3.3
2019-Nov-21 10:30 302 0 gusting 4 3.3
2019-Nov-21 10:25 303 3.3
2019-Nov-21 10:20 309 3.3
2019-Nov-21 10:15 318 0 gusting 3 3.3
2019-Nov-21 10:10 315 0 gusting 6 3.9
2019-Nov-21 10:05 313 3.9
2019-Nov-21 10:00 3.9
2019-Nov-21 09:55 304 1 gusting 4 3.9
2019-Nov-21 09:50 302 1 gusting 5 3.9
2019-Nov-21 09:45 302 1 gusting 5 3.9
2019-Nov-21 09:40 315 0 gusting 5 3.9
2019-Nov-21 09:35 339 0 gusting 5 3.9
2019-Nov-21 09:30 343 1 gusting 5 4.4
2019-Nov-21 09:25 339 1 gusting 5 4.4
2019-Nov-21 09:20 342 2 gusting 6 4.4
2019-Nov-21 09:15 333 2 gusting 6 4.4
2019-Nov-21 09:10 320 3 gusting 5 4.4
2019-Nov-21 09:05 308 3 gusting 7 4.4
2019-Nov-21 09:00 310 3 gusting 7 4.4
2019-Nov-21 08:55 312 3 gusting 6 4.4
2019-Nov-21 08:50 303 2 gusting 6 4.4
2019-Nov-21 08:45 302 2 gusting 6 4.4
2019-Nov-21 08:40 310 2 gusting 6 4.4
2019-Nov-21 08:35 311 2 gusting 6 4.4
2019-Nov-21 08:30 302 3 gusting 6 4.4
2019-Nov-21 08:25 297 2 gusting 6 4.4
2019-Nov-21 08:20 298 2 gusting 7 4.4
2019-Nov-21 08:15 307 2 gusting 7 4.4
2019-Nov-21 08:10 310 2 gusting 7 4.4
2019-Nov-21 08:05 312 2 gusting 5 4.4
2019-Nov-21 08:00 307 3 gusting 6 5.0
2019-Nov-21 07:55 308 2 gusting 6 5.0
2019-Nov-21 07:50 312 2 gusting 6 5.0
2019-Nov-21 07:45 303 2 gusting 6 5.0
2019-Nov-21 07:40 310 3 gusting 6 5.0
2019-Nov-21 07:35 314 3 gusting 7 5.0
2019-Nov-21 07:30 312 3 gusting 7 5.0
2019-Nov-21 07:25 311 3 gusting 6 5.0
2019-Nov-21 07:20 309 3 gusting 7 5.0
2019-Nov-21 07:15 308 3 gusting 7 5.0
2019-Nov-21 07:10 306 3 gusting 6 5.0
2019-Nov-21 07:05 305 4 gusting 6 5.0
2019-Nov-21 07:00 306 4 gusting 7 5.0
2019-Nov-21 06:55 301 3 gusting 7 4.4
2019-Nov-21 06:50 296 2 gusting 7 4.4
2019-Nov-21 06:45 302 2 gusting 7 4.4
2019-Nov-21 06:40 305 3 gusting 7 4.4
2019-Nov-21 06:35 302 4 gusting 7 4.4
2019-Nov-21 06:30 300 4 gusting 7 4.4
2019-Nov-21 06:25 297 3 gusting 6 4.4
2019-Nov-21 06:20 299 2 gusting 6 4.4
2019-Nov-21 06:15 308 2 gusting 5 4.4
2019-Nov-21 06:10 304 1 gusting 6 4.4
2019-Nov-21 06:05 300 0 gusting 6 4.4
2019-Nov-21 06:00 298 4.4
2019-Nov-21 05:55 315 0 gusting 1 4.4
2019-Nov-21 05:50 320 1 gusting 5 4.4
2019-Nov-21 05:45 301 2 gusting 6 4.4
2019-Nov-21 05:40 293 1 gusting 6 4.4
2019-Nov-21 05:35 294 0 gusting 4 4.4
2019-Nov-21 05:30 310 0 gusting 4 4.4
2019-Nov-21 05:25 302 1 gusting 3 4.4
2019-Nov-21 05:20 305 0 gusting 4 4.4
2019-Nov-21 05:15 306 0 gusting 4 4.4
2019-Nov-21 05:10 305 0 gusting 3 5.0
2019-Nov-21 05:05 311 1 gusting 3 5.0
2019-Nov-21 05:00 308 1 gusting 5 5.0
2019-Nov-21 04:55 300 1 gusting 5 5.0
2019-Nov-21 04:50 306 1 gusting 4 5.0
2019-Nov-21 04:45 316 1 gusting 4 5.0
2019-Nov-21 04:40 305 3 gusting 5 5.0
2019-Nov-21 04:35 300 4 gusting 6 5.0
2019-Nov-21 04:30 300 3 gusting 6 5.0
2019-Nov-21 04:25 298 3 gusting 6 5.0
2019-Nov-21 04:20 299 2 gusting 6 5.0
2019-Nov-21 04:15 299 2 gusting 5 5.0
2019-Nov-21 04:10 300 2 gusting 5 5.0
2019-Nov-21 04:05 301 2 gusting 4 5.0
2019-Nov-21 04:00 301 2 gusting 4 5.0
2019-Nov-21 03:55 303 1 gusting 4 5.0
2019-Nov-21 03:50 301 0 gusting 5 5.0
2019-Nov-21 03:45 299 0 gusting 5 5.6
2019-Nov-21 03:40 295 1 gusting 4 5.6
2019-Nov-21 03:35 297 2 gusting 4 5.6
2019-Nov-21 03:30 300 2 gusting 6 5.6
2019-Nov-21 03:25 305 3 gusting 6 5.6
2019-Nov-21 03:20 302 4 gusting 6 5.6
2019-Nov-21 03:15 296 4 gusting 7 5.6
2019-Nov-21 03:10 295 4 gusting 7 5.6
2019-Nov-21 03:05 298 4 gusting 7 5.6
2019-Nov-21 03:00 299 4 gusting 8 5.6
2019-Nov-21 02:55 298 3 gusting 8 5.6
2019-Nov-21 02:50 297 3 gusting 7 5.6
2019-Nov-21 02:45 299 2 gusting 7 5.6
2019-Nov-21 02:40 297 2 gusting 6 5.6
2019-Nov-21 02:35 298 2 gusting 5 5.0
2019-Nov-21 02:30 299 2 gusting 6 5.6
2019-Nov-21 02:25 297 2 gusting 6 5.6
2019-Nov-21 02:20 293 2 gusting 6 5.6
2019-Nov-21 02:15 295 3 gusting 6 5.6
2019-Nov-21 02:10 299 3 gusting 5 5.6
2019-Nov-21 02:05 300 4 gusting 6 5.6
2019-Nov-21 02:00 298 3 gusting 6 5.6
2019-Nov-21 01:55 299 3 gusting 6 5.6
2019-Nov-21 01:50 304 3 gusting 6 5.6
2019-Nov-21 01:45 304 3 gusting 6 5.6
2019-Nov-21 01:40 300 3 gusting 6 6.1
2019-Nov-21 01:35 300 3 gusting 6 5.6
2019-Nov-21 01:30 303 4 gusting 6 5.6
2019-Nov-21 01:25 305 2 gusting 6 5.6
2019-Nov-21 01:20 305 0 gusting 6 5.6
2019-Nov-21 01:15 296 0 gusting 4 6.1
2019-Nov-21 01:10 280 1 gusting 3 6.1
2019-Nov-21 01:05 294 2 gusting 6 6.1
2019-Nov-21 01:00 299 3 gusting 6 6.1
2019-Nov-21 00:55 298 3 gusting 6 6.7
2019-Nov-21 00:50 296 3 gusting 6 6.7
2019-Nov-21 00:45 299 3 gusting 6 6.7
2019-Nov-21 00:40 299 3 gusting 6 6.7
2019-Nov-21 00:35 296 3 gusting 5 6.7
2019-Nov-21 00:30 294 3 gusting 6 6.7
2019-Nov-21 00:25 293 2 gusting 6 7.2
2019-Nov-21 00:20 295 2 gusting 6 7.2
2019-Nov-21 00:15 297 2 gusting 6 7.2
2019-Nov-21 00:10 299 2 gusting 6 7.2
2019-Nov-21 00:05 302 1 gusting 6 7.8
2019-Nov-21 00:00 304 0 gusting 6 7.8
2019-Nov-20 23:55 301 1 gusting 6 7.8
2019-Nov-20 23:50 292 2 gusting 4 7.8
2019-Nov-20 23:45 296 2 gusting 6 8.3
2019-Nov-20 23:40 302 2 gusting 7 8.3
2019-Nov-20 23:35 305 2 gusting 7 8.3
2019-Nov-20 23:30 300 3 gusting 6 8.3
2019-Nov-20 23:25 295 4 gusting 6 8.3
2019-Nov-20 23:20 290 4 gusting 7 8.3
2019-Nov-20 23:15 291 4 gusting 8 8.3
2019-Nov-20 23:10 295 4 gusting 8 8.9
2019-Nov-20 23:05 295 4 gusting 8 8.9
2019-Nov-20 23:00 295 4 gusting 8 8.9
2019-Nov-20 22:55 298 4 gusting 6 8.9
2019-Nov-20 22:50 297 3 gusting 6 8.9
2019-Nov-20 22:45 295 3 gusting 7 8.9
2019-Nov-20 22:40 301 2 gusting 7 8.9
2019-Nov-20 22:35 307 2 gusting 6 8.9
2019-Nov-20 22:30 304 3 gusting 6 8.9
2019-Nov-20 22:25 314 3 gusting 8 8.9
2019-Nov-20 22:20 313 3 gusting 8 9.4
2019-Nov-20 22:15 310 3 gusting 9 9.4
2019-Nov-20 22:10 320 4 gusting 9 9.4
2019-Nov-20 22:05 316 4 gusting 8 9.4
2019-Nov-20 22:00 307 5 gusting 9 9.4
2019-Nov-20 21:55 308 5 gusting 10 10.0
2019-Nov-20 21:50 311 4 gusting 10 10.0
2019-Nov-20 21:45 316 4 gusting 8 10.0
2019-Nov-20 21:40 318 5 gusting 9 10.0
2019-Nov-20 21:35 311 4 gusting 9 10.0
2019-Nov-20 21:30 306 4 gusting 10 10.0
2019-Nov-20 21:25 310 4 gusting 10 10.0
2019-Nov-20 21:20 321 4 gusting 11 10.0
2019-Nov-20 21:15 332 5 gusting 11 10.6
2019-Nov-20 21:10 333 5 gusting 12 10.6
2019-Nov-20 21:05 335 5 gusting 13 10.6
2019-Nov-20 21:00 333 5 gusting 13 10.6
2019-Nov-20 20:55 323 5 gusting 11 10.6
2019-Nov-20 20:50 331 5 gusting 11 11.1
2019-Nov-20 20:45 335 5 gusting 13 11.1
2019-Nov-20 20:40 327 5 gusting 13 11.1
2019-Nov-20 20:35 331 5 gusting 13 11.1
2019-Nov-20 20:30 337 5 gusting 13 11.1
2019-Nov-20 20:25 329 5 gusting 10 11.1
2019-Nov-20 20:20 330 5 gusting 11 11.1
2019-Nov-20 20:15 329 5 gusting 11 11.1
2019-Nov-20 20:10 325 5 gusting 12 11.1
2019-Nov-20 20:05 330 6 gusting 12 11.1
2019-Nov-20 20:00 332 6 gusting 13 11.1
2019-Nov-20 19:55 338 5 gusting 13 11.1
2019-Nov-20 19:50 332 5 gusting 12 11.1
2019-Nov-20 19:45 324 6 gusting 11 11.1
2019-Nov-20 19:40 334 6 gusting 11 11.1
2019-Nov-20 19:35 326 6 gusting 13 11.1
2019-Nov-20 19:30 322 6 gusting 18 11.1
2019-Nov-20 19:25 327 6 gusting 18 11.1
2019-Nov-20 19:20 325 6 gusting 13 11.1
2019-Nov-20 19:15 322 5 gusting 13 11.1
2019-Nov-20 19:10 321 5 gusting 10 11.7
2019-Nov-20 19:05 324 6 gusting 10 11.7
2019-Nov-20 19:00 334 6 gusting 13 11.7
2019-Nov-20 18:55 339 6 gusting 13 11.7
2019-Nov-20 18:50 328 6 gusting 13 12.2
2019-Nov-20 18:45 312 6 gusting 12 12.8
2019-Nov-20 18:40 306 5 gusting 12 12.8
2019-Nov-20 18:35 312 5 gusting 12 12.8
2019-Nov-20 18:30 325 6 gusting 12 12.2
2019-Nov-20 18:25 320 6 gusting 13 12.2
2019-Nov-20 18:20 306 6 gusting 13 12.2
2019-Nov-20 18:15 311 6 gusting 13 11.7
2019-Nov-20 18:10 331 6 gusting 13 12.2
2019-Nov-20 18:05 331 6 gusting 13 12.2
2019-Nov-20 18:00 323 6 gusting 15 11.7
2019-Nov-20 17:55 341 6 gusting 17 12.2
2019-Nov-20 17:50 348 6 gusting 17 12.2
2019-Nov-20 17:45 325 6 gusting 15 12.2
2019-Nov-20 17:40 318 6 gusting 15 12.2
2019-Nov-20 17:35 320 6 gusting 15 11.7
2019-Nov-20 17:30 326 6 gusting 11 11.7
2019-Nov-20 17:25 324 6 gusting 13 11.1
2019-Nov-20 17:20 317 6 gusting 13 10.6
2019-Nov-20 17:15 317 6 gusting 12 10.6
2019-Nov-20 17:10 316 6 gusting 13 10.6
2019-Nov-20 17:05 304 6 gusting 15 10.6
2019-Nov-20 17:00 303 6 gusting 15 10.6
2019-Nov-20 16:55 312 6 gusting 17 10.6
2019-Nov-20 16:50 313 6 gusting 17 10.6
2019-Nov-20 16:45 306 6 gusting 11 10.6
2019-Nov-20 16:40 300 5 gusting 11 10.6
2019-Nov-20 16:35 309 5 gusting 11 10.6
2019-Nov-20 16:30 311 5 gusting 12 10.6
2019-Nov-20 16:25 309 5 gusting 12 10.6
2019-Nov-20 16:20 308 6 gusting 10 10.6
2019-Nov-20 16:15 300 6 gusting 10 10.0
2019-Nov-20 16:10 294 5 gusting 13 10.0
2019-Nov-20 16:05 296 4 gusting 13 10.0
2019-Nov-20 16:00 303 4 gusting 7 10.0
2019-Nov-20 15:55 315 4 gusting 10 9.4
2019-Nov-20 15:50 323 4 gusting 10 9.4
2019-Nov-20 15:45 309 4 gusting 10 9.4
2019-Nov-20 15:40 313 4 gusting 10 8.9
2019-Nov-20 15:35 323 3 gusting 10 8.9
2019-Nov-20 15:30 316 3 gusting 9 8.9
2019-Nov-20 15:25 318 3 gusting 6 8.9
2019-Nov-20 15:20 312 4 gusting 6 8.3
2019-Nov-20 15:15 302 4 gusting 9 8.3
2019-Nov-20 15:10 303 3 gusting 9 8.3
2019-Nov-20 15:05 314 3 gusting 7 8.3
2019-Nov-20 15:00 313 3 gusting 6 8.3
2019-Nov-20 14:55 306 3 gusting 6 8.3
2019-Nov-20 14:50 311 2 gusting 6 7.8
2019-Nov-20 14:45 310 2 gusting 6 7.8
2019-Nov-20 14:40 310 2 gusting 6 7.8
2019-Nov-20 14:35 317 2 gusting 5 7.8
2019-Nov-20 14:30 325 2 gusting 5 7.8
2019-Nov-20 14:25 316 2 gusting 5 7.8
2019-Nov-20 14:20 314 1 gusting 5 7.8
2019-Nov-20 14:15 330 1 gusting 5 7.8
2019-Nov-20 14:10 317 1 gusting 4 7.2
2019-Nov-20 14:05 308 1 gusting 4 7.2
2019-Nov-20 14:00 311 1 gusting 4 7.8
2019-Nov-20 13:55 323 1 gusting 4 7.2
2019-Nov-20 13:50 321 1 gusting 4 7.2
2019-Nov-20 13:45 299 1 gusting 4 7.2
2019-Nov-20 13:40 296 1 gusting 4 7.2
2019-Nov-20 13:35 299 2 gusting 4 7.2
2019-Nov-20 13:30 294 2 gusting 5 7.2
2019-Nov-20 13:25 294 1 gusting 5 6.7
2019-Nov-20 13:20 302 1 gusting 4 6.7
2019-Nov-20 13:15 312 1 gusting 4 6.7
2019-Nov-20 13:10 315 1 gusting 4 6.7
2019-Nov-20 13:05 304 1 gusting 3 6.7
2019-Nov-20 13:00 298 2 gusting 4 6.7
2019-Nov-20 12:55 301 2 gusting 4 6.7
2019-Nov-20 12:50 296 1 gusting 4 6.7
2019-Nov-20 12:45 289 0 gusting 4 6.7
2019-Nov-20 12:40 285 0 gusting 3 6.7
2019-Nov-20 12:35 299 0 gusting 3 6.7
2019-Nov-20 12:30 310 0 gusting 2 6.7
2019-Nov-20 12:25 312 1 gusting 2 6.7
2019-Nov-20 12:20 311 1 gusting 3 6.7
2019-Nov-20 12:15 304 0 gusting 3 6.7
2019-Nov-20 12:10 296 0 gusting 3 6.7
2019-Nov-20 12:05 296 6.7
2019-Nov-20 12:00 6.7